Time,TemperatureF,DewpointF,PressureIn,WindDirection,WindDirectionDegrees,WindSpeedMPH,WindSpeedGustMPH,Humidity,HourlyPrecipIn,Conditions,Clouds,dailyrainin,SoftwareType,DateUTC
2013-05-06 00:04:00,63.1,20.1,29.81,North,360,1.0,8.0,19,0.00,,,0.00,Wunderground v.1.15,2013-05-06 06:04:00,
2013-05-06 00:09:00,62.9,20.0,29.81,ENE,61,2.0,8.0,19,0.00,,,0.00,Wunderground v.1.15,2013-05-06 06:09:00,
2013-05-06 00:14:00,62.7,21.0,29.81,NE,36,5.0,5.0,20,0.00,,,0.00,Wunderground v.1.15,2013-05-06 06:14:00,
2013-05-06 00:20:00,62.6,21.0,29.81,ENE,76,4.0,13.0,20,0.00,,,0.00,weatherlink.com 1.10,2013-05-06 06:20:00,
2013-05-06 00:25:00,62.6,22.1,29.81,East,84,1.0,4.0,21,0.00,,,0.00,Wunderground v.1.15,2013-05-06 06:25:00,
2013-05-06 00:31:00,62.5,22.0,29.81,East,98,3.0,6.0,21,0.00,,,0.00,Wunderground v.1.15,2013-05-06 06:31:00,
2013-05-06 00:36:00,62.5,20.8,29.81,ESE,112,1.0,5.0,20,0.00,,,0.00,Wunderground v.1.15,2013-05-06 06:36:00,
2013-05-06 00:42:00,62.6,19.7,29.81,SE,126,4.0,6.0,19,0.00,,,0.00,Wunderground v.1.15,2013-05-06 06:42:00,
2013-05-06 00:48:00,62.8,21.1,29.80,NE,42,4.0,9.0,20,0.00,,,0.00,Wunderground v.1.15,2013-05-06 06:48:00,
2013-05-06 00:53:00,62.7,22.2,29.81,North,5,3.0,5.0,21,0.00,,,0.00,Wunderground v.1.15,2013-05-06 06:53:00,
2013-05-06 00:58:00,62.3,22.9,29.80,NNW,333,5.0,6.0,22,0.00,,,0.00,Wunderground v.1.15,2013-05-06 06:58:00,
2013-05-06 01:04:00,61.8,22.5,29.80,NW,325,4.0,4.0,22,0.00,,,0.00,Wunderground v.1.15,2013-05-06 07:04:00,
2013-05-06 01:10:00,61.3,22.1,29.80,NNW,332,2.0,2.0,22,0.00,,,0.00,Wunderground v.1.15,2013-05-06 07:10:00,
2013-05-06 01:15:00,60.9,20.7,29.80,NNW,327,2.0,4.0,21,0.00,,,0.00,Wunderground v.1.15,2013-05-06 07:15:00,
2013-05-06 01:21:00,60.5,21.4,29.80,NNW,327,3.0,3.0,22,0.00,,,0.00,Wunderground v.1.15,2013-05-06 07:21:00,
2013-05-06 01:26:00,60.0,21.0,29.79,NNW,327,0.0,3.0,22,0.00,,,0.00,Wunderground v.1.15,2013-05-06 07:26:00,
2013-05-06 01:32:00,59.6,20.7,29.79,NNW,327,4.0,4.0,22,0.00,,,0.00,Wunderground v.1.15,2013-05-06 07:32:00,
2013-05-06 01:38:00,59.2,20.3,29.78,NNW,336,3.0,5.0,22,0.00,,,0.00,Wunderground v.1.15,2013-05-06 07:38:00,
2013-05-06 01:43:00,59.3,20.4,29.78,NNW,335,0.0,2.0,22,0.00,,,0.00,Wunderground v.1.15,2013-05-06 07:43:00,
2013-05-06 01:49:00,59.1,20.2,29.78,NNW,333,4.0,4.0,22,0.00,,,0.00,Wunderground v.1.15,2013-05-06 07:49:00,
2013-05-06 01:55:00,58.9,20.1,29.79,WNW,287,0.0,4.0,22,0.00,,,0.00,Wunderground v.1.15,2013-05-06 07:55:00,
2013-05-06 02:00:00,58.7,19.9,29.78,WNW,287,2.0,3.0,22,0.00,,,0.00,Wunderground v.1.15,2013-05-06 08:00:00,
2013-05-06 02:06:00,58.6,19.8,29.78,WNW,286,3.0,7.0,22,0.00,,,0.00,Wunderground v.1.15,2013-05-06 08:06:00,
2013-05-06 02:11:00,58.5,19.7,29.78,WNW,288,5.0,5.0,22,0.00,,,0.00,Wunderground v.1.15,2013-05-06 08:11:00,
2013-05-06 02:16:00,58.3,19.6,29.78,WNW,286,0.0,6.0,22,0.00,,,0.00,Wunderground v.1.15,2013-05-06 08:16:00,
2013-05-06 02:21:00,58.0,20.4,29.78,NNW,340,5.0,6.0,23,0.00,,,0.00,Wunderground v.1.15,2013-05-06 08:21:00,
2013-05-06 02:26:00,57.8,19.1,29.78,NNW,331,2.0,6.0,22,0.00,,,0.00,Wunderground v.1.15,2013-05-06 08:26:00,
2013-05-06 02:31:00,57.6,19.0,29.78,NW,325,4.0,4.0,22,0.00,,,0.00,Wunderground v.1.15,2013-05-06 08:31:00,
2013-05-06 02:36:00,57.4,18.8,29.77,NW,326,2.0,5.0,22,0.00,,,0.00,Wunderground v.1.15,2013-05-06 08:36:00,
2013-05-06 02:41:00,57.2,19.7,29.77,NW,326,3.0,4.0,23,0.00,,,0.00,Wunderground v.1.15,2013-05-06 08:41:00,
2013-05-06 02:46:00,57.0,19.5,29.78,NW,326,3.0,4.0,23,0.00,,,0.00,Wunderground v.1.15,2013-05-06 08:46:00,
2013-05-06 02:51:00,56.8,19.3,29.78,NW,326,4.0,4.0,23,0.00,,,0.00,Wunderground v.1.15,2013-05-06 08:51:00,
2013-05-06 02:56:00,56.7,20.3,29.78,WNW,296,4.0,8.0,24,0.00,,,0.00,Wunderground v.1.15,2013-05-06 08:56:00,
2013-05-06 03:01:00,56.6,20.2,29.78,WNW,294,1.0,4.0,24,0.00,,,0.00,Wunderground v.1.15,2013-05-06 09:01:00,
2013-05-06 03:06:00,56.5,20.1,29.79,WNW,285,2.0,7.0,24,0.00,,,0.00,Wunderground v.1.15,2013-05-06 09:06:00,
2013-05-06 03:11:00,56.4,19.0,29.78,West,277,3.0,7.0,23,0.00,,,0.00,Wunderground v.1.15,2013-05-06 09:11:00,
2013-05-06 03:16:00,56.4,19.0,29.79,West,276,2.0,7.0,23,0.00,,,0.00,Wunderground v.1.15,2013-05-06 09:16:00,
2013-05-06 03:21:00,56.4,20.0,29.79,West,277,0.0,3.0,24,0.00,,,0.00,Wunderground v.1.15,2013-05-06 09:21:00,
2013-05-06 03:26:00,56.3,18.9,29.79,West,277,4.0,6.0,23,0.00,,,0.00,Wunderground v.1.15,2013-05-06 09:26:00,
2013-05-06 03:31:00,56.4,19.0,29.79,West,276,1.0,2.0,23,0.00,,,0.00,Wunderground v.1.15,2013-05-06 09:31:00,
2013-05-06 03:37:00,56.4,19.0,29.79,West,277,1.0,5.0,23,0.00,,,0.00,Wunderground v.1.15,2013-05-06 09:37:00,
2013-05-06 03:42:00,56.4,19.0,29.79,West,277,0.0,2.0,23,0.00,,,0.00,Wunderground v.1.15,2013-05-06 09:42:00,
2013-05-06 03:47:00,56.2,19.8,29.79,West,276,0.0,3.0,24,0.00,,,0.00,Wunderground v.1.15,2013-05-06 09:47:00,
2013-05-06 03:52:00,56.0,19.7,29.79,West,276,0.0,4.0,24,0.00,,,0.00,Wunderground v.1.15,2013-05-06 09:52:00,
2013-05-06 03:57:00,55.8,20.5,29.79,West,276,2.0,4.0,25,0.00,,,0.00,Wunderground v.1.15,2013-05-06 09:57:00,
2013-05-06 04:02:00,55.6,20.3,29.79,West,276,2.0,2.0,25,0.00,,,0.00,Wunderground v.1.15,2013-05-06 10:02:00,
2013-05-06 04:07:00,55.3,20.0,29.79,West,276,2.0,3.0,25,0.00,,,0.00,Wunderground v.1.15,2013-05-06 10:07:00,
2013-05-06 04:12:00,55.2,20.9,29.79,West,276,0.0,1.0,26,0.00,,,0.00,Wunderground v.1.15,2013-05-06 10:12:00,
2013-05-06 04:17:00,55.0,20.7,29.78,West,276,2.0,3.0,26,0.00,,,0.00,Wunderground v.1.15,2013-05-06 10:17:00,
2013-05-06 04:22:00,54.8,20.5,29.79,West,276,4.0,4.0,26,0.00,,,0.00,Wunderground v.1.15,2013-05-06 10:22:00,
2013-05-06 04:27:00,54.8,20.5,29.78,West,277,2.0,5.0,26,0.00,,,0.00,Wunderground v.1.15,2013-05-06 10:27:00,
2013-05-06 04:32:00,54.8,22.3,29.78,West,276,0.0,2.0,28,0.00,,,0.00,Wunderground v.1.15,2013-05-06 10:32:00,
2013-05-06 04:37:00,54.8,20.5,29.78,West,276,0.0,2.0,26,0.00,,,0.00,Wunderground v.1.15,2013-05-06 10:37:00,
2013-05-06 04:42:00,54.8,20.5,29.78,WNW,283,3.0,5.0,26,0.00,,,0.00,Wunderground v.1.15,2013-05-06 10:42:00,
2013-05-06 04:47:00,54.8,21.4,29.78,NNW,344,5.0,6.0,27,0.00,,,0.00,Wunderground v.1.15,2013-05-06 10:47:00,
2013-05-06 04:52:00,55.0,20.7,29.78,NNW,346,4.0,6.0,26,0.00,,,0.00,Wunderground v.1.15,2013-05-06 10:52:00,
2013-05-06 04:57:00,55.1,21.7,29.77,NNW,346,1.0,7.0,27,0.00,,,0.00,Wunderground v.1.15,2013-05-06 10:57:00,
2013-05-06 05:02:00,55.2,20.9,29.77,NNW,346,1.0,5.0,26,0.00,,,0.00,Wunderground v.1.15,2013-05-06 11:02:00,
2013-05-06 05:07:00,55.3,21.0,29.77,North,355,1.0,8.0,26,0.00,,,0.00,Wunderground v.1.15,2013-05-06 11:07:00,
2013-05-06 05:12:00,55.3,21.0,29.77,North,355,3.0,5.0,26,0.00,,,0.00,Wunderground v.1.15,2013-05-06 11:12:00,
2013-05-06 05:17:00,55.3,21.0,29.77,North,10,2.0,6.0,26,0.00,,,0.00,Wunderground v.1.15,2013-05-06 11:17:00,
2013-05-06 05:22:00,55.2,20.9,29.77,North,11,1.0,3.0,26,0.00,,,0.00,Wunderground v.1.15,2013-05-06 11:22:00,
2013-05-06 05:27:00,55.1,20.8,29.77,North,9,2.0,5.0,26,0.00,,,0.00,Wunderground v.1.15,2013-05-06 11:27:00,
2013-05-06 05:32:00,55.1,20.8,29.77,North,9,3.0,4.0,26,0.00,,,0.00,Wunderground v.1.15,2013-05-06 11:32:00,
2013-05-06 05:37:00,55.1,20.8,29.77,North,10,4.0,4.0,26,0.00,,,0.00,Wunderground v.1.15,2013-05-06 11:37:00,
2013-05-06 05:42:00,55.0,20.7,29.77,North,11,4.0,4.0,26,0.00,,,0.00,Wunderground v.1.15,2013-05-06 11:42:00,
2013-05-06 05:47:00,54.8,21.4,29.77,North,11,8.0,8.0,27,0.00,,,0.00,Wunderground v.1.15,2013-05-06 11:47:00,
2013-05-06 05:52:00,54.7,22.2,29.77,North,360,5.0,7.0,28,0.00,,,0.00,Wunderground v.1.15,2013-05-06 11:52:00,
2013-05-06 05:57:00,54.5,22.9,29.77,North,360,3.0,7.0,29,0.00,,,0.00,Wunderground v.1.15,2013-05-06 11:57:00,
2013-05-06 06:02:00,54.4,22.8,29.77,NNE,26,2.0,5.0,29,0.00,,,0.00,Wunderground v.1.15,2013-05-06 12:02:00,
2013-05-06 06:07:00,54.2,22.6,29.76,NNE,25,4.0,5.0,29,0.00,,,0.00,Wunderground v.1.15,2013-05-06 12:07:00,
2013-05-06 06:12:00,54.1,22.5,29.76,NNE,31,2.0,4.0,29,0.00,,,0.00,Wunderground v.1.15,2013-05-06 12:12:00,
2013-05-06 06:17:00,54.0,22.4,29.77,NE,39,0.0,8.0,29,0.00,,,0.00,Wunderground v.1.15,2013-05-06 12:17:00,
2013-05-06 06:22:00,53.9,22.3,29.77,NE,43,2.0,6.0,29,0.00,,,0.00,Wunderground v.1.15,2013-05-06 12:22:00,
2013-05-06 06:27:00,53.8,22.2,29.77,NE,43,0.0,6.0,29,0.00,,,0.00,Wunderground v.1.15,2013-05-06 12:27:00,
2013-05-06 06:32:00,53.7,22.2,29.77,North,360,4.0,6.0,29,0.00,,,0.00,Wunderground v.1.15,2013-05-06 12:32:00,
2013-05-06 06:37:00,53.8,22.2,29.77,North,360,0.0,6.0,29,0.00,,,0.00,Wunderground v.1.15,2013-05-06 12:37:00,
2013-05-06 06:42:00,53.9,22.3,29.77,North,355,5.0,6.0,29,0.00,,,0.00,Wunderground v.1.15,2013-05-06 12:42:00,
2013-05-06 06:47:00,54.1,21.7,29.77,North,350,0.0,6.0,28,0.00,,,0.00,Wunderground v.1.15,2013-05-06 12:47:00,
2013-05-06 06:52:00,54.4,21.9,29.77,North,350,3.0,5.0,28,0.00,,,0.00,Wunderground v.1.15,2013-05-06 12:52:00,
2013-05-06 06:57:00,54.7,22.2,29.77,WNW,282,5.0,8.0,28,0.00,,,0.00,Wunderground v.1.15,2013-05-06 12:57:00,
2013-05-06 07:03:00,55.1,21.7,29.77,WNW,293,2.0,8.0,27,0.00,,,0.00,Wunderground v.1.15,2013-05-06 13:03:00,
2013-05-06 07:08:00,55.3,21.8,29.78,NNW,344,1.0,8.0,27,0.00,,,0.00,Wunderground v.1.15,2013-05-06 13:08:00,
2013-05-06 07:13:00,55.5,22.9,29.78,NNW,342,1.0,3.0,28,0.00,,,0.00,Wunderground v.1.15,2013-05-06 13:13:00,
2013-05-06 07:18:00,55.6,23.0,29.78,NNW,342,1.0,5.0,28,0.00,,,0.00,Wunderground v.1.15,2013-05-06 13:18:00,
2013-05-06 07:23:00,55.7,23.1,29.79,NNW,343,4.0,5.0,28,0.00,,,0.00,Wunderground v.1.15,2013-05-06 13:23:00,
2013-05-06 07:28:00,55.9,23.2,29.79,NNW,342,3.0,5.0,28,0.00,,,0.00,Wunderground v.1.15,2013-05-06 13:28:00,
2013-05-06 07:33:00,56.1,22.5,29.79,NNW,343,4.0,4.0,27,0.00,,,0.00,Wunderground v.1.15,2013-05-06 13:33:00,
2013-05-06 07:38:00,56.3,22.7,29.79,West,273,5.0,6.0,27,0.00,,,0.00,Wunderground v.1.15,2013-05-06 13:38:00,
2013-05-06 07:43:00,56.5,22.9,29.79,West,273,3.0,7.0,27,0.00,,,0.00,Wunderground v.1.15,2013-05-06 13:43:00,
2013-05-06 07:48:00,56.8,23.1,29.79,West,273,1.0,7.0,27,0.00,,,0.00,Wunderground v.1.15,2013-05-06 13:48:00,
2013-05-06 07:53:00,57.2,23.5,29.79,NW,311,4.0,6.0,27,0.00,,,0.00,Wunderground v.1.15,2013-05-06 13:53:00,
2013-05-06 07:58:00,57.5,22.8,29.79,NW,306,4.0,6.0,26,0.00,,,0.00,Wunderground v.1.15,2013-05-06 13:58:00,
2013-05-06 08:03:00,57.7,23.0,29.80,NW,306,1.0,3.0,26,0.00,,,0.00,Wunderground v.1.15,2013-05-06 14:03:00,
2013-05-06 08:08:00,57.8,23.1,29.80,NW,306,0.0,4.0,26,0.00,,,0.00,Wunderground v.1.15,2013-05-06 14:08:00,
2013-05-06 08:13:00,58.0,23.3,29.81,NW,304,3.0,6.0,26,0.00,,,0.00,Wunderground v.1.15,2013-05-06 14:13:00,
2013-05-06 08:18:00,58.1,24.3,29.80,NW,304,5.0,7.0,27,0.00,,,0.00,Wunderground v.1.15,2013-05-06 14:18:00,
2013-05-06 08:23:00,58.2,24.3,29.80,WNW,303,4.0,6.0,27,0.00,,,0.00,Wunderground v.1.15,2013-05-06 14:23:00,
2013-05-06 08:28:00,58.3,24.4,29.81,WNW,302,3.0,6.0,27,0.00,,,0.00,Wunderground v.1.15,2013-05-06 14:28:00,
2013-05-06 08:33:00,58.4,24.5,29.81,WNW,303,0.0,4.0,27,0.00,,,0.00,Wunderground v.1.15,2013-05-06 14:33:00,
2013-05-06 08:38:00,58.6,24.7,29.81,WNW,303,2.0,4.0,27,0.00,,,0.00,Wunderground v.1.15,2013-05-06 14:38:00,
2013-05-06 08:43:00,58.9,24.9,29.81,WNW,303,4.0,5.0,27,0.00,,,0.00,Wunderground v.1.15,2013-05-06 14:43:00,
2013-05-06 08:48:00,59.3,25.3,29.81,WNW,302,2.0,5.0,27,0.00,,,0.00,Wunderground v.1.15,2013-05-06 14:48:00,
2013-05-06 08:53:00,59.6,25.5,29.81,WNW,302,0.0,3.0,27,0.00,,,0.00,Wunderground v.1.15,2013-05-06 14:53:00,
2013-05-06 08:58:00,60.0,24.0,29.81,WNW,303,2.0,3.0,25,0.00,,,0.00,Wunderground v.1.15,2013-05-06 14:58:00,
2013-05-06 09:03:00,60.4,24.4,29.81,WNW,302,0.0,4.0,25,0.00,,,0.00,Wunderground v.1.15,2013-05-06 15:03:00,
2013-05-06 09:08:00,60.7,23.7,29.81,SW,224,3.0,6.0,24,0.00,,,0.00,Wunderground v.1.15,2013-05-06 15:08:00,
2013-05-06 09:13:00,61.0,24.9,29.81,WSW,250,1.0,3.0,25,0.00,,,0.00,Wunderground v.1.15,2013-05-06 15:13:00,
2013-05-06 09:18:00,61.2,24.1,29.81,SE,145,7.0,11.0,24,0.00,,,0.00,Wunderground v.1.15,2013-05-06 15:18:00,
2013-05-06 09:23:00,61.7,24.5,29.80,ESE,121,7.0,10.0,24,0.00,,,0.00,Wunderground v.1.15,2013-05-06 15:23:00,
2013-05-06 09:28:00,62.1,23.8,29.80,SSE,166,10.0,17.0,23,0.00,,,0.00,Wunderground v.1.15,2013-05-06 15:28:00,
2013-05-06 09:33:00,62.5,23.1,29.80,South,187,9.0,16.0,22,0.00,,,0.00,Wunderground v.1.15,2013-05-06 15:33:00,
2013-05-06 09:39:00,62.7,23.3,29.81,South,179,11.0,16.0,22,0.00,,,0.00,Wunderground v.1.15,2013-05-06 15:39:00,
2013-05-06 09:44:00,63.3,23.8,29.81,SSE,156,7.0,12.0,22,0.00,,,0.00,Wunderground v.1.15,2013-05-06 15:44:00,
2013-05-06 10:33:00,59.7,37.7,29.84,SSW,205,19.0,19.0,44,0.00,,,0.00,Wunderground v.1.15,2013-05-06 16:33:00,
2013-05-06 10:38:00,59.6,37.0,29.84,South,178,17.0,21.0,44,0.00,,,0.00,weatherlink.com 1.10,2013-05-06 16:38:00,
2013-05-06 10:44:00,60.5,38.5,29.84,SSW,202,6.0,14.0,44,0.00,,,0.00,Wunderground v.1.15,2013-05-06 16:44:00,
2013-05-06 10:49:00,60.7,39.2,29.84,South,187,15.0,21.0,45,0.00,,,0.00,Wunderground v.1.15,2013-05-06 16:49:00,
2013-05-06 10:55:00,60.5,39.0,29.83,South,175,8.0,15.0,45,0.00,,,0.00,Wunderground v.1.15,2013-05-06 16:55:00,
2013-05-06 11:01:00,61.5,38.8,29.83,South,171,18.0,18.0,43,0.00,,,0.00,Wunderground v.1.15,2013-05-06 17:01:00,
2013-05-06 11:07:00,62.3,39.0,29.83,SSW,203,5.0,19.0,43,0.00,,,0.00,weatherlink.com 1.10,2013-05-06 17:07:00,
2013-05-06 11:12:00,62.1,39.3,29.83,SSW,202,7.0,15.0,43,0.00,,,0.00,Wunderground v.1.15,2013-05-06 17:12:00,
2013-05-06 11:17:00,62.2,39.4,29.83,SW,231,8.0,15.0,43,0.00,,,0.00,Wunderground v.1.15,2013-05-06 17:17:00,
2013-05-06 11:22:00,62.6,39.8,29.83,South,181,5.0,13.0,43,0.00,,,0.00,Wunderground v.1.15,2013-05-06 17:22:00,
2013-05-06 11:27:00,62.8,38.7,29.83,SSW,194,10.0,13.0,41,0.00,,,0.00,Wunderground v.1.15,2013-05-06 17:27:00,
2013-05-06 11:32:00,63.0,38.9,29.83,SSW,205,10.0,11.0,41,0.00,,,0.00,Wunderground v.1.15,2013-05-06 17:32:00,
2013-05-06 11:37:00,63.3,39.2,29.83,SW,219,9.0,16.0,41,0.00,,,0.00,Wunderground v.1.15,2013-05-06 17:37:00,
2013-05-06 11:42:00,63.7,40.2,29.82,South,175,18.0,21.0,42,0.00,,,0.00,Wunderground v.1.15,2013-05-06 17:42:00,
2013-05-06 11:47:00,64.9,38.7,29.82,SSE,168,16.0,24.0,38,0.00,,,0.00,Wunderground v.1.15,2013-05-06 17:47:00,
2013-05-06 11:52:00,65.1,38.2,29.83,SSE,152,11.0,19.0,37,0.00,,,0.00,Wunderground v.1.15,2013-05-06 17:52:00,
2013-05-06 11:57:00,65.2,38.9,29.82,SSW,205,9.0,19.0,38,0.00,,,0.00,Wunderground v.1.15,2013-05-06 17:57:00,
2013-05-06 12:02:00,66.1,39.7,29.82,SW,219,11.0,24.0,38,0.00,,,0.00,Wunderground v.1.15,2013-05-06 18:02:00,
2013-05-06 12:07:00,66.9,39.8,29.82,South,187,15.0,24.0,37,0.00,,,0.00,Wunderground v.1.15,2013-05-06 18:07:00,
2013-05-06 12:12:00,66.1,39.1,29.82,SSW,192,7.0,17.0,37,0.00,,,0.00,Wunderground v.1.15,2013-05-06 18:12:00,
2013-05-06 12:17:00,65.5,39.9,29.82,SW,221,9.0,18.0,39,0.00,,,0.00,Wunderground v.1.15,2013-05-06 18:17:00,
2013-05-06 12:22:00,65.3,40.3,29.82,WSW,241,8.0,18.0,40,0.00,,,0.00,Wunderground v.1.15,2013-05-06 18:22:00,
2013-05-06 12:27:00,65.1,39.5,29.82,SSW,207,6.0,18.0,39,0.00,,,0.00,Wunderground v.1.15,2013-05-06 18:27:00,
2013-05-06 12:32:00,64.9,39.3,29.82,SSW,201,6.0,12.0,39,0.00,,,0.00,Wunderground v.1.15,2013-05-06 18:32:00,
2013-05-06 12:37:00,64.9,38.7,29.82,SSW,199,11.0,17.0,38,0.00,,,0.00,Wunderground v.1.15,2013-05-06 18:37:00,
2013-05-06 12:42:00,65.4,39.8,29.82,SW,223,5.0,17.0,39,0.00,,,0.00,Wunderground v.1.15,2013-05-06 18:42:00,
2013-05-06 12:47:00,66.0,39.7,29.82,SSW,199,11.0,17.0,38,0.00,,,0.00,Wunderground v.1.15,2013-05-06 18:47:00,
2013-05-06 12:53:00,66.2,38.4,29.82,WSW,246,9.0,15.0,36,0.00,,,0.00,Wunderground v.1.15,2013-05-06 18:53:00,
2013-05-06 12:58:00,65.1,38.2,29.82,SW,219,9.0,20.0,37,0.00,,,0.00,Wunderground v.1.15,2013-05-06 18:58:00,
2013-05-06 13:03:00,64.8,38.6,29.81,SW,236,9.0,12.0,38,0.00,,,0.00,Wunderground v.1.15,2013-05-06 19:03:00,
2013-05-06 13:08:00,64.7,38.5,29.81,SW,234,5.0,19.0,38,0.00,,,0.00,Wunderground v.1.15,2013-05-06 19:08:00,
2013-05-06 13:13:00,65.9,38.9,29.81,SSW,202,5.0,12.0,37,0.00,,,0.00,Wunderground v.1.15,2013-05-06 19:13:00,
2013-05-06 13:18:00,66.6,38.1,29.81,SW,219,7.0,19.0,35,0.00,,,0.00,Wunderground v.1.15,2013-05-06 19:18:00,
2013-05-06 13:23:00,66.5,38.0,29.82,SSW,205,11.0,17.0,35,0.00,,,0.00,Wunderground v.1.15,2013-05-06 19:23:00,
2013-05-06 13:28:00,67.4,38.0,29.81,SW,234,5.0,17.0,34,0.00,,,0.00,Wunderground v.1.15,2013-05-06 19:28:00,
2013-05-06 13:33:00,68.1,37.9,29.81,SW,234,11.0,13.0,33,0.00,,,0.00,Wunderground v.1.15,2013-05-06 19:33:00,
2013-05-06 13:38:00,68.5,37.5,29.81,SSW,202,7.0,19.0,32,0.00,,,0.00,Wunderground v.1.15,2013-05-06 19:38:00,
2013-05-06 13:43:00,68.3,37.3,29.81,SW,234,6.0,9.0,32,0.00,,,0.00,Wunderground v.1.15,2013-05-06 19:43:00,
2013-05-06 13:48:00,67.9,37.7,29.80,West,261,7.0,17.0,33,0.00,,,0.00,Wunderground v.1.15,2013-05-06 19:48:00,
2013-05-06 13:53:00,68.3,37.3,29.81,WSW,246,3.0,17.0,32,0.00,,,0.00,Wunderground v.1.15,2013-05-06 19:53:00,
2013-05-06 13:58:00,68.3,36.5,29.80,West,275,6.0,17.0,31,0.00,,,0.00,Wunderground v.1.15,2013-05-06 19:58:00,
2013-05-06 14:03:00,67.8,37.6,29.80,West,263,7.0,11.0,33,0.00,,,0.00,Wunderground v.1.15,2013-05-06 20:03:00,
2013-05-06 14:08:00,68.1,37.1,29.80,West,261,11.0,20.0,32,0.00,,,0.00,Wunderground v.1.15,2013-05-06 20:08:00,
2013-05-06 14:13:00,67.8,36.8,29.80,West,263,4.0,12.0,32,0.00,,,0.00,Wunderground v.1.15,2013-05-06 20:13:00,
2013-05-06 14:18:00,67.9,37.7,29.79,WSW,240,9.0,14.0,33,0.00,,,0.00,Wunderground v.1.15,2013-05-06 20:18:00,
2013-05-06 14:23:00,69.0,36.3,29.79,SW,231,7.0,18.0,30,0.00,,,0.00,Wunderground v.1.15,2013-05-06 20:23:00,
2013-05-06 14:28:00,69.4,37.4,29.79,WSW,255,12.0,18.0,31,0.00,,,0.00,Wunderground v.1.15,2013-05-06 20:28:00,
2013-05-06 14:33:00,69.6,35.0,29.79,WSW,248,11.0,19.0,28,0.00,,,0.00,Wunderground v.1.15,2013-05-06 20:33:00,
2013-05-06 14:38:00,68.9,35.3,29.79,SSW,205,5.0,19.0,29,0.00,,,0.00,Wunderground v.1.15,2013-05-06 20:38:00,
2013-05-06 14:44:00,68.5,35.0,29.79,West,261,6.0,14.0,29,0.00,,,0.00,Wunderground v.1.15,2013-05-06 20:44:00,
2013-05-06 14:49:00,69.5,36.7,29.79,West,270,4.0,18.0,30,0.00,,,0.00,Wunderground v.1.15,2013-05-06 20:49:00,
2013-05-06 14:53:00,70.0,36.3,29.79,SSW,200,9.0,17.0,29,0.00,,,0.00,Wunderground v.1.15,2013-05-06 20:53:00,
2013-05-06 14:58:00,70.2,36.4,29.79,SW,236,16.0,21.0,29,0.00,,,0.00,Wunderground v.1.15,2013-05-06 20:58:00,
2013-05-06 15:03:00,69.6,35.0,29.79,SW,229,7.0,14.0,28,0.00,,,0.00,Wunderground v.1.15,2013-05-06 21:03:00,
2013-05-06 15:09:00,70.0,35.4,29.78,South,185,15.0,16.0,28,0.00,,,0.00,Wunderground v.1.15,2013-05-06 21:09:00,
2013-05-06 15:14:00,71.0,35.3,29.78,SSW,201,11.0,22.0,27,0.00,,,0.00,Wunderground v.1.15,2013-05-06 21:14:00,
2013-05-06 15:19:00,71.2,34.5,29.78,WSW,255,8.0,22.0,26,0.00,,,0.00,Wunderground v.1.15,2013-05-06 21:19:00,
2013-05-06 15:24:00,71.6,35.8,29.78,WSW,244,8.0,12.0,27,0.00,,,0.00,Wunderground v.1.15,2013-05-06 21:24:00,
2013-05-06 15:29:00,72.1,34.3,29.78,WSW,243,6.0,19.0,25,0.00,,,0.00,Wunderground v.1.15,2013-05-06 21:29:00,
2013-05-06 15:34:00,72.8,32.8,29.77,WSW,241,13.0,14.0,23,0.00,,,0.00,Wunderground v.1.15,2013-05-06 21:34:00,
2013-05-06 15:39:00,72.4,30.2,29.77,SW,236,12.0,19.0,21,0.00,,,0.00,Wunderground v.1.15,2013-05-06 21:39:00,
2013-05-06 15:44:00,72.3,30.1,29.77,SW,217,15.0,21.0,21,0.00,,,0.00,Wunderground v.1.15,2013-05-06 21:44:00,
2013-05-06 15:49:00,72.6,31.5,29.77,SW,234,8.0,21.0,22,0.00,,,0.00,Wunderground v.1.15,2013-05-06 21:49:00,
2013-05-06 15:54:00,73.0,31.9,29.77,SW,234,15.0,20.0,22,0.00,,,0.00,Wunderground v.1.15,2013-05-06 21:54:00,
2013-05-06 15:59:00,72.7,30.5,29.77,WSW,244,13.0,21.0,21,0.00,,,0.00,Wunderground v.1.15,2013-05-06 21:59:00,
2013-05-06 16:04:00,72.3,31.3,29.77,SW,229,5.0,18.0,22,0.00,,,0.00,Wunderground v.1.15,2013-05-06 22:04:00,
2013-05-06 16:09:00,72.7,31.6,29.77,WSW,244,8.0,18.0,22,0.00,,,0.00,Wunderground v.1.15,2013-05-06 22:09:00,
2013-05-06 16:14:00,71.9,31.0,29.76,WSW,244,8.0,12.0,22,0.00,,,0.00,Wunderground v.1.15,2013-05-06 22:14:00,
2013-05-06 16:19:00,71.5,31.7,29.76,South,182,11.0,17.0,23,0.00,,,0.00,Wunderground v.1.15,2013-05-06 22:19:00,
2013-05-06 16:24:00,71.7,30.8,29.76,WSW,244,13.0,19.0,22,0.00,,,0.00,Wunderground v.1.15,2013-05-06 22:24:00,
2013-05-06 16:29:00,71.9,31.0,29.76,WSW,244,8.0,19.0,22,0.00,,,0.00,Wunderground v.1.15,2013-05-06 22:29:00,
2013-05-06 16:34:00,72.1,31.1,29.76,West,260,8.0,14.0,22,0.00,,,0.00,Wunderground v.1.15,2013-05-06 22:34:00,
2013-05-06 16:39:00,72.0,31.0,29.76,SW,227,10.0,16.0,22,0.00,,,0.00,Wunderground v.1.15,2013-05-06 22:39:00,
2013-05-06 16:46:00,71.4,31.6,29.76,WSW,243,8.0,15.0,23,0.00,,,0.00,Wunderground v.1.15,2013-05-06 22:46:00,
2013-05-06 16:51:00,70.9,31.2,29.76,WSW,240,5.0,8.0,23,0.00,,,0.00,Wunderground v.1.15,2013-05-06 22:51:00,
2013-05-06 16:56:00,70.8,30.0,29.75,SSW,196,5.0,12.0,22,0.00,,,0.00,Wunderground v.1.15,2013-05-06 22:56:00,
2013-05-06 17:01:00,70.9,31.2,29.75,WSW,241,8.0,8.0,23,0.00,,,0.00,Wunderground v.1.15,2013-05-06 23:01:00,
2013-05-06 17:06:00,70.6,29.9,29.75,South,180,6.0,13.0,22,0.00,,,0.00,Wunderground v.1.15,2013-05-06 23:06:00,
2013-05-06 17:11:00,70.3,29.6,29.75,WSW,251,9.0,11.0,22,0.00,,,0.00,Wunderground v.1.15,2013-05-06 23:11:00,
2013-05-06 17:16:00,70.8,30.0,29.75,SSW,207,10.0,12.0,22,0.00,,,0.00,Wunderground v.1.15,2013-05-06 23:16:00,
2013-05-06 17:21:00,71.5,29.5,29.75,West,268,9.0,9.0,21,0.00,,,0.00,Wunderground v.1.15,2013-05-06 23:21:00,
2013-05-06 17:26:00,72.4,29.0,29.75,SSW,213,14.0,15.0,20,0.00,,,0.00,Wunderground v.1.15,2013-05-06 23:26:00,
2013-05-06 17:31:00,72.0,28.7,29.75,SW,235,10.0,19.0,20,0.00,,,0.00,Wunderground v.1.15,2013-05-06 23:31:00,
2013-05-06 17:36:00,71.6,28.4,29.75,SW,221,17.0,20.0,20,0.00,,,0.00,Wunderground v.1.15,2013-05-06 23:36:00,
2013-05-06 17:41:00,71.2,29.2,29.75,West,271,5.0,12.0,21,0.00,,,0.00,Wunderground v.1.15,2013-05-06 23:41:00,
2013-05-06 17:46:00,71.1,29.2,29.75,WNW,288,6.0,12.0,21,0.00,,,0.00,Wunderground v.1.15,2013-05-06 23:46:00,
2013-05-06 17:51:00,71.1,29.2,29.75,WNW,292,10.0,12.0,21,0.00,,,0.00,Wunderground v.1.15,2013-05-06 23:51:00,
2013-05-06 17:56:00,70.8,28.9,29.75,West,278,5.0,18.0,21,0.00,,,0.00,Wunderground v.1.15,2013-05-06 23:56:00,
2013-05-06 18:02:00,70.8,28.9,29.75,West,272,4.0,18.0,21,0.00,,,0.00,Wunderground v.1.15,2013-05-07 00:02:00,
2013-05-06 18:07:00,70.9,27.8,29.75,West,273,14.0,20.0,20,0.00,,,0.00,Wunderground v.1.15,2013-05-07 00:07:00,
2013-05-06 18:12:00,71.6,28.4,29.75,WSW,238,11.0,11.0,20,0.00,,,0.00,Wunderground v.1.15,2013-05-07 00:12:00,
2013-05-06 18:19:00,72.3,27.7,29.75,West,279,3.0,18.0,19,0.00,,,0.00,Wunderground v.1.15,2013-05-07 00:19:00,
2013-05-06 18:24:00,72.8,28.1,29.75,WSW,257,12.0,12.0,19,0.00,,,0.00,Wunderground v.1.15,2013-05-07 00:24:00,
2013-05-06 18:29:00,72.9,28.2,29.74,West,278,14.0,16.0,19,0.00,,,0.00,Wunderground v.1.15,2013-05-07 00:29:00,
2013-05-06 18:36:00,72.3,27.7,29.75,WSW,256,11.0,16.0,19,0.00,,,0.00,Wunderground v.1.15,2013-05-07 00:36:00,
2013-05-06 18:41:00,72.2,27.6,29.75,WSW,251,9.0,16.0,19,0.00,,,0.00,Wunderground v.1.15,2013-05-07 00:41:00,
2013-05-06 18:46:00,72.2,27.6,29.75,WSW,258,6.0,10.0,19,0.00,,,0.00,Wunderground v.1.15,2013-05-07 00:46:00,
2013-05-06 18:51:00,72.1,27.5,29.75,WSW,251,11.0,15.0,19,0.00,,,0.00,Wunderground v.1.15,2013-05-07 00:51:00,
2013-05-06 18:56:00,72.0,27.5,29.75,WNW,284,7.0,10.0,19,0.00,,,0.00,Wunderground v.1.15,2013-05-07 00:56:00,
2013-05-06 19:02:00,71.2,28.0,29.75,West,277,12.0,13.0,20,0.00,,,0.00,Wunderground v.1.15,2013-05-07 01:02:00,
2013-05-06 19:07:00,70.8,28.9,29.75,West,269,10.0,14.0,21,0.00,,,0.00,Wunderground v.1.15,2013-05-07 01:07:00,
2013-05-06 19:12:00,70.6,27.5,29.75,West,259,6.0,16.0,20,0.00,,,0.00,Wunderground v.1.15,2013-05-07 01:12:00,
2013-05-06 19:17:00,70.1,28.3,29.75,West,273,10.0,16.0,21,0.00,,,0.00,Wunderground v.1.15,2013-05-07 01:17:00,
2013-05-06 19:22:00,69.6,27.9,29.75,WSW,246,8.0,10.0,21,0.00,,,0.00,Wunderground v.1.15,2013-05-07 01:22:00,
2013-05-06 19:27:00,69.3,28.8,29.76,WSW,245,4.0,10.0,22,0.00,,,0.00,Wunderground v.1.15,2013-05-07 01:27:00,
2013-05-06 19:32:00,69.0,28.5,29.76,WSW,248,6.0,7.0,22,0.00,,,0.00,Wunderground v.1.15,2013-05-07 01:32:00,
2013-05-06 19:37:00,68.8,28.4,29.75,SW,227,3.0,8.0,22,0.00,,,0.00,Wunderground v.1.15,2013-05-07 01:37:00,
2013-05-06 19:43:00,68.6,28.2,29.76,West,263,4.0,6.0,22,0.00,,,0.00,Wunderground v.1.15,2013-05-07 01:43:00,
2013-05-06 19:48:00,68.4,28.0,29.76,WSW,248,7.0,9.0,22,0.00,,,0.00,Wunderground v.1.15,2013-05-07 01:48:00,
2013-05-06 19:53:00,68.3,28.0,29.76,WNW,286,3.0,6.0,22,0.00,,,0.00,Wunderground v.1.15,2013-05-07 01:53:00,
2013-05-06 19:58:00,68.1,28.9,29.77,West,278,4.0,6.0,23,0.00,,,0.00,Wunderground v.1.15,2013-05-07 01:58:00,
2013-05-06 20:03:00,67.9,28.7,29.77,West,277,3.0,4.0,23,0.00,,,0.00,Wunderground v.1.15,2013-05-07 02:03:00,
2013-05-06 20:08:00,67.7,28.5,29.77,West,277,2.0,5.0,23,0.00,,,0.00,Wunderground v.1.15,2013-05-07 02:08:00,
2013-05-06 20:13:00,67.5,28.4,29.77,WNW,287,2.0,5.0,23,0.00,,,0.00,Wunderground v.1.15,2013-05-07 02:13:00,
2013-05-06 20:18:00,67.3,28.2,29.77,WNW,286,3.0,5.0,23,0.00,,,0.00,Wunderground v.1.15,2013-05-07 02:18:00,
2013-05-06 20:23:00,67.1,29.1,29.77,WNW,286,2.0,5.0,24,0.00,,,0.00,Wunderground v.1.15,2013-05-07 02:23:00,
2013-05-06 20:28:00,66.9,28.9,29.77,WNW,286,2.0,5.0,24,0.00,,,0.00,Wunderground v.1.15,2013-05-07 02:28:00,
2013-05-06 20:33:00,66.6,28.6,29.77,WNW,286,2.0,4.0,24,0.00,,,0.00,Wunderground v.1.15,2013-05-07 02:33:00,
2013-05-06 20:38:00,66.4,29.5,29.77,WNW,286,1.0,4.0,25,0.00,,,0.00,Wunderground v.1.15,2013-05-07 02:38:00,
2013-05-06 20:43:00,66.1,29.2,29.78,WNW,286,3.0,4.0,25,0.00,,,0.00,Wunderground v.1.15,2013-05-07 02:43:00,
2013-05-06 20:48:00,65.9,29.1,29.78,WNW,286,3.0,4.0,25,0.00,,,0.00,Wunderground v.1.15,2013-05-07 02:48:00,
2013-05-06 20:53:00,65.8,29.0,29.78,WNW,285,5.0,7.0,25,0.00,,,0.00,Wunderground v.1.15,2013-05-07 02:53:00,
2013-05-06 20:58:00,65.8,29.0,29.78,WNW,282,2.0,7.0,25,0.00,,,0.00,Wunderground v.1.15,2013-05-07 02:58:00,
2013-05-06 21:04:00,65.8,29.0,29.78,West,281,2.0,4.0,25,0.00,,,0.00,Wunderground v.1.15,2013-05-07 03:04:00,
2013-05-06 21:09:00,65.8,29.0,29.79,West,266,0.0,5.0,25,0.00,,,0.00,Wunderground v.1.15,2013-05-07 03:09:00,
2013-05-06 21:14:00,65.8,29.0,29.79,West,266,4.0,4.0,25,0.00,,,0.00,Wunderground v.1.15,2013-05-07 03:14:00,
2013-05-06 21:19:00,65.7,29.8,29.79,NW,313,2.0,4.0,26,0.00,,,0.00,Wunderground v.1.15,2013-05-07 03:19:00,
2013-05-06 21:24:00,65.5,29.7,29.80,NNW,336,3.0,4.0,26,0.00,,,0.00,Wunderground v.1.15,2013-05-07 03:24:00,
2013-05-06 21:29:00,65.2,29.4,29.80,NNW,338,3.0,6.0,26,0.00,,,0.00,Wunderground v.1.15,2013-05-07 03:29:00,
2013-05-06 21:34:00,65.0,29.2,29.80,NNW,338,1.0,3.0,26,0.00,,,0.00,Wunderground v.1.15,2013-05-07 03:34:00,
2013-05-06 21:39:00,64.8,30.0,29.80,NNW,338,3.0,3.0,27,0.00,,,0.00,Wunderground v.1.15,2013-05-07 03:39:00,
2013-05-06 21:44:00,64.4,31.4,29.80,NNW,338,0.0,1.0,29,0.00,,,0.00,Wunderground v.1.15,2013-05-07 03:44:00,
2013-05-06 21:49:00,64.0,31.1,29.81,NNW,338,0.0,1.0,29,0.00,,,0.00,Wunderground v.1.15,2013-05-07 03:49:00,
2013-05-06 21:54:00,63.5,30.6,29.81,NNW,338,0.0,0.0,29,0.00,,,0.00,Wunderground v.1.15,2013-05-07 03:54:00,
2013-05-06 21:59:00,63.1,31.1,29.81,NNW,338,0.0,2.0,30,0.00,,,0.00,Wunderground v.1.15,2013-05-07 03:59:00,
2013-05-06 22:01:00,62.9,31.0,29.81,NNW,338,0.0,0.0,30,0.00,,,0.00,Wunderground v.1.15,2013-05-07 04:01:00,
2013-05-06 22:06:00,62.6,30.7,29.81,NNW,338,0.0,3.0,30,0.00,,,0.00,Wunderground v.1.15,2013-05-07 04:06:00,
2013-05-06 22:11:00,62.3,30.4,29.81,NNW,338,1.0,3.0,30,0.00,,,0.00,Wunderground v.1.15,2013-05-07 04:11:00,
2013-05-06 22:16:00,62.2,31.2,29.81,NNW,338,0.0,4.0,31,0.00,,,0.00,Wunderground v.1.15,2013-05-07 04:16:00,
2013-05-06 22:21:00,62.1,31.1,29.82,NNW,338,4.0,6.0,31,0.00,,,0.00,Wunderground v.1.15,2013-05-07 04:21:00,
2013-05-06 22:26:00,62.3,32.0,29.82,NNW,329,7.0,9.0,32,0.00,,,0.00,Wunderground v.1.15,2013-05-07 04:26:00,
2013-05-06 22:32:00,62.4,32.1,29.82,NNW,342,2.0,4.0,32,0.00,,,0.00,Wunderground v.1.15,2013-05-07 04:32:00,
2013-05-06 22:37:00,62.2,32.0,29.82,NNW,341,0.0,4.0,32,0.00,,,0.00,Wunderground v.1.15,2013-05-07 04:37:00,
2013-05-06 22:42:00,62.0,31.8,29.82,NNW,341,0.0,2.0,32,0.00,,,0.00,Wunderground v.1.15,2013-05-07 04:42:00,
2013-05-06 22:47:00,61.8,31.6,29.82,NNW,341,0.0,2.0,32,0.00,,,0.00,Wunderground v.1.15,2013-05-07 04:47:00,
2013-05-06 22:52:00,61.6,32.2,29.83,NNW,341,2.0,3.0,33,0.00,,,0.00,Wunderground v.1.15,2013-05-07 04:52:00,
2013-05-06 22:57:00,61.6,32.2,29.83,NNW,340,0.0,3.0,33,0.00,,,0.00,Wunderground v.1.15,2013-05-07 04:57:00,
2013-05-06 23:02:00,61.5,32.8,29.83,NNW,341,0.0,2.0,34,0.00,,,0.00,Wunderground v.1.15,2013-05-07 05:02:00,
2013-05-06 23:07:00,61.3,31.9,29.83,NNW,340,0.0,2.0,33,0.00,,,0.00,Wunderground v.1.15,2013-05-07 05:07:00,
2013-05-06 23:12:00,61.2,31.8,29.83,NNW,341,0.0,1.0,33,0.00,,,0.00,Wunderground v.1.15,2013-05-07 05:12:00,
2013-05-06 23:17:00,61.2,32.6,29.83,NNW,341,0.0,2.0,34,0.00,,,0.00,Wunderground v.1.15,2013-05-07 05:17:00,
2013-05-06 23:22:00,61.1,31.8,29.83,NNW,341,0.0,0.0,33,0.00,,,0.00,Wunderground v.1.15,2013-05-07 05:22:00,
2013-05-06 23:27:00,61.0,32.4,29.83,NNW,341,0.0,0.0,34,0.00,,,0.00,Wunderground v.1.15,2013-05-07 05:27:00,
2013-05-06 23:32:00,60.9,31.6,29.84,NNW,341,0.0,0.0,33,0.00,,,0.00,Wunderground v.1.15,2013-05-07 05:32:00,
2013-05-06 23:37:00,60.9,31.6,29.84,NNW,341,0.0,0.0,33,0.00,,,0.00,Wunderground v.1.15,2013-05-07 05:37:00,
2013-05-06 23:42:00,60.9,32.3,29.84,NNW,341,0.0,0.0,34,0.00,,,0.00,Wunderground v.1.15,2013-05-07 05:42:00,
2013-05-06 23:47:00,60.9,32.3,29.84,NNW,341,0.0,0.0,34,0.00,,,0.00,Wunderground v.1.15,2013-05-07 05:47:00,
2013-05-06 23:52:00,60.8,32.2,29.84,NNW,341,0.0,0.0,34,0.00,,,0.00,Wunderground v.1.15,2013-05-07 05:52:00,
2013-05-06 23:57:00,60.7,31.4,29.84,NNW,341,0.0,0.0,33,0.00,,,0.00,Wunderground v.1.15,2013-05-07 05:57:00,